Regional Weather Roundup
Issued by NWS

Home | Current Version | Previous Version | Graphics & Text | Print | Product List | Glossary On
Versions: 1 2 3 4 5 6 7 8 9 10 11 12 13 14 15 16 17 18 19 20 21 22 23 24 25 26 27 28 29 30 31 32 33 34 35 36 37 38 39 40 41 42 43 44 45 46 47 48 49 50
000
ASUS43 KOAX 010602
RWRNE

WEATHER ROUNDUP FOR NEBRASKA
NATIONAL WEATHER SERVICE OMAHA NE
100 AM CDT TUE SEP 01 2015

NOTES: SATELLITE DATA IS BEING USED TO AUGMENT CLOUD COVER ABOVE
       12000 FEET.
       "FAIR" INDICATES FEW OR NO CLOUDS BELOW 12,000 FEET WITH NO
       SIGNIFICANT WEATHER AND/OR OBSTRUCTIONS TO VISIBILITY.

  * THESE STATIONS DO NOT REPORT WEATHER SUCH AS RAIN...SNOW OR FOG.

NEZ001>004-019>022-054>056-010700-
NEBRASKA PANHANDLE

CITY           SKY/WX    TMP DP  RH WIND       PRES   REMARKS
SCOTTSBLUFF    PTCLDY    62  56  80 N3        30.00F
6HR MIN TEMP:  61; 6HR MAX TEMP:  80; 6HR PCP:  0.02;

ALLIANCE       MOCLDY    65  50  58 SE6       30.00R
6HR MIN TEMP:  64; 6HR MAX TEMP:  80;

CHADRON        PTCLDY    62  50  64 E3        29.93F
6HR MIN TEMP:  62; 6HR MAX TEMP:  83;

KIMBALL        MOCLDY    59  57  91 SW7       30.06S
SIDNEY         CLOUDY    63  54  72 S6        30.05F
6HR MIN TEMP:  61; 6HR MAX TEMP:  83;

$$

NEZ057>060-069>072-079>082-010700-
SOUTHWEST NEBRASKA

CITY           SKY/WX    TMP DP  RH WIND       PRES   REMARKS
NORTH PLATTE   CLOUDY    74  64  71 NW6       29.96R
6HR MIN TEMP:  71; 6HR MAX TEMP:  85;

IMPERIAL       CLOUDY    70  60  70 NW13      29.99S
6HR MIN TEMP:  70; 6HR MAX TEMP:  86;

LEXINGTON      PTCLDY    70  62  77 CALM      29.93R
MC COOK        MOCLDY    81  52  36 S13G20    29.91R
6HR MIN TEMP:  77; 6HR MAX TEMP:  96;

OGALLALA       CLOUDY    71  60  70 S3        29.99F
$$

NEZ005>010-023>029-035>040-094-010700-
NORTH CENTRAL NEBRASKA

CITY           SKY/WX    TMP DP  RH WIND       PRES   REMARKS
VALENTINE      CLOUDY    63  59  87 E3        29.95S
6HR MIN TEMP:  63; 6HR MAX TEMP:  78;

AINSWORTH      MOCLDY    65  63  93 CALM      29.96R
BROKEN BOW     MOCLDY    73  66  78 SE6       29.94R
6HR MIN TEMP:  71; 6HR MAX TEMP:  87;

O`NEILL        PTCLDY    71  69  95 CALM      29.92F
ORD            PTCLDY    66  64  93 CALM      29.92R
6HR MIN TEMP:  66; 6HR MAX TEMP:  87;

THEDFORD       MOCLDY    71  64  79 CALM      29.97R THUNDER
$$

NEZ041-046>049-061>064-073>077-083>087-010700-
SOUTH CENTRAL NEBRASKA

CITY           SKY/WX    TMP DP  RH WIND       PRES   REMARKS
GRAND ISLAND   FAIR      69  64  84 SE6       29.92S
6HR MIN TEMP:  69; 6HR MAX TEMP:  85;

AURORA         FAIR      67  67  99 SE6       29.92S
HASTINGS       FAIR      71  63  75 SE7       29.92S
6HR MIN TEMP:  71; 6HR MAX TEMP:  87;

HEBRON         FAIR      74  64  70 S9        29.92S
HOLDREGE       FAIR      70  59  68 S8        29.92S
KEARNEY *      FAIR      75  57  53 S14       29.91S
YORK           FAIR      72  68  88 S9        29.92F
$$

NEZ011>018-030>034-042>045-010700-
NORTHEAST NEBRASKA

CITY           SKY/WX    TMP DP  RH WIND       PRES   REMARKS
NORFOLK        FAIR      69  67  93 CALM      29.91S
6HR MIN TEMP:  68; 6HR MAX TEMP:  82;

ALBION         FAIR      68  66  92 CALM      29.92S FOG
BLAIR          FAIR      73  67  82 S7        29.93S
COLUMBUS *     FAIR      66  61  82 CALM      29.92S
FREMONT        FAIR      73  68  83 SE7       29.92S
TEKAMAH        FAIR      66  65  96 S3        29.91S FOG
6HR MIN TEMP:  66; 6HR MAX TEMP:  80;

$$

NEZ050>053-065>068-078-088>093-010700-
SOUTHEAST NEBRASKA

CITY           SKY/WX    TMP DP  RH WIND       PRES   REMARKS
LINCOLN        FAIR      73  68  84 S8        29.93S
6HR MIN TEMP:  72; 6HR MAX TEMP:  86;

OMAHA EPPLEY   FAIR      73  69  87 S7        29.93R
6HR MIN TEMP:  73; 6HR MAX TEMP:  84;

BEATRICE       FAIR      72  67  85 SE8       29.94S
FALLS CITY     FAIR      74  69  85 S6        29.95R
6HR MIN TEMP:  73; 6HR MAX TEMP:  84;

NEBRASKA CITY  FAIR      72  67  84 S8        29.95S
PLATTSMOUTH    FAIR      73  68  85 SE9       29.94S
$$

NEZ044-045-051>053-067-010700-
OMAHA AREA

CITY           SKY/WX    TMP DP  RH WIND       PRES   REMARKS
EPPLEY FIELD   FAIR      73  69  87 S7        29.93R
6HR MIN TEMP:  73; 6HR MAX TEMP:  84;

BLAIR          FAIR      73  67  82 S7        29.93S
FREMONT        FAIR      73  68  83 SE7       29.92S
MILLARD        FAIR      73  69  89 SE3       29.93S
OFFUTT AFB     CLEAR     66  66 100 E6        29.93S
PLATTSMOUTH    FAIR      73  68  85 SE9       29.94S
WAHOO          FAIR      68  66  94 SE6       29.92S
$$


USA.gov is the U.S. government's official web portal to all federal, state and local government web resources and services.